星链-31441 (STARLINK-31441 )

导读 | 豆包AI

STARLINK-31441是美国SpaceX星链互联网星座的成员,于2024年6月23日8点发射。它延续了星链低轨卫星星座的组网部署,依托星链星座的规模优势,有望为全球偏远地区、移动载体提供高速低延迟的互联网接入服务,进一步完善星链星座的全球覆盖能力,也拓展了美国低轨卫星通信的布局。

Basic Information
目录编号:
60091
目录名称:
STARLINK-31441
国际标识:
2024-117A
轨道中心:
EARTH
卫星名称:
星链-31441
卫星全名:
星链-31441 (STARLINK-31441 )
卫星状态:
在轨 (已飞行677 天)
发射日期:
2024-06-23 UTC
国别 :
美国 (US)
星等 :
--
Orbit Information
数据来源 国际轨道数据 AOE轨道数据
星历时间 2026-04-30T15:51:55+0800
17小时前
查看轨道信息
2026-04-30T08:00:00+0800
1天前
查看轨道信息
半长轴 6853.371km 6853.365km
偏心率 0.0001086 0.0001061
轨道倾角 53.159° 53.158°
近地点辐角 72.484° 84.456°
升交点赤经 157.188° 158.710°
平近点角 287.628° 269.311°
近地点 474.489km 474.5km
远地点 475.979km 475.956km
周期 94.106分钟 94.106分钟
每日圈数 15.301939 15.30196
Detailed Information
固有亮度:
5
最大亮度:
1.5
卫星平台:
Starlink v2.0 mini
覆盖范围:
全球
运营商:
太空探索技术公司
运营商所在国:
美国
制造商(研发单位):
太空探索技术公司
制造商所在国:
美国
使用方式:
暂无
Satellite Introduction
星链(Starlink)计划是由太空探索技术公司(SpaceX)提出的一个巨型低轨卫星互联网星座项目,计划在2019年至2024年间在太空搭建由约1.2万颗卫星组成的“星链”网络,其中1584颗将部署在地球上空550千米处的近地轨道,并从2020年开始工作。该卫星仍在工作。
2D Orbit Map
3D Orbit Map
Orbit Altitude Analysis Chart
Orbit Inclination Analysis Chart
Orbit Comprehensive Analysis Chart
View Comprehensive Chart